Total_Precipitation_Accumulation
1.93 1.98 1.92 1.89 1.87 1.76 1.72 1.81 1.87 1.72 1.59 1.39 1.25 1.19 1.22 1.19 1.28 1.10 1.01 0.91 0.71 0.61 0.51 0.44 0.44 0.49 0.57 0.76 0.90 0.91 0.98 1.02 1.02 1.01 0.99 0.97 0.98 0.97
1.92 2.01 2.01 2.01 2.03 1.95 1.82 1.77 1.71 1.73 1.64 1.42 1.23 1.13 1.27 1.18 1.28 1.10 1.05 1.13 0.91 0.74 0.64 0.57 0.51 0.49 0.48 0.56 0.65 0.64 0.63 0.64 0.73 0.85 0.97 1.11 1.14 1.06
1.72 1.80 1.90 2.00 2.12 2.13 2.10 1.95 1.81 1.78 1.69 1.52 1.32 1.17 1.30 1.35 1.29 1.23 1.13 1.02 0.96 0.86 0.74 0.72 0.65 0.54 0.52 0.55 0.62 0.59 0.57 0.52 0.50 0.57 0.67 0.83 1.10 1.14
1.55 1.52 1.60 1.72 1.86 2.00 2.06 2.00 1.99 1.90 1.80 1.75 1.57 1.31 1.21 1.28 1.31 1.37 1.29 1.11 1.03 1.05 0.95 0.84 0.77 0.67 0.59 0.54 0.59 0.58 0.55 0.51 0.48 0.46 0.47 0.54 0.67 0.84
1.34 1.30 1.32 1.43 1.56 1.69 1.77 1.84 1.96 1.99 1.98 1.88 1.78 1.58 1.34 1.34 1.38 1.37 1.37 1.43 1.22 1.12 1.12 1.06 0.97 0.88 0.81 0.70 0.64 0.61 0.57 0.52 0.50 0.48 0.45 0.46 0.52 0.64
1.07 1.08 1.13 1.16 1.24 1.36 1.50 1.70 1.90 2.00 2.06 2.04 1.93 1.70 1.52 1.49 1.48 1.46 1.50 1.53 1.49 1.29 1.20 1.14 1.17 1.08 0.95 0.82 0.74 0.69 0.65 0.61 0.57 0.57 0.53 0.45 0.41 0.46
0.87 0.78 0.80 0.86 0.87 0.95 1.01 1.29 1.54 1.75 1.89 1.96 1.91 1.75 1.54 1.44 1.34 1.39 1.50 1.63 1.66 1.62 1.53 1.28 1.22 1.16 1.09 0.98 0.85 0.76 0.70 0.66 0.62 0.60 0.60 0.60 0.55 0.49
0.76 0.69 0.67 0.71 0.62 0.59 0.63 0.85 1.14 1.34 1.52 1.70 1.76 1.62 1.48 1.40 1.44 1.46 1.45 1.46 1.45 1.40 1.40 1.42 1.34 1.24 1.15 1.07 1.02 0.94 0.86 0.79 0.71 0.67 0.67 0.68 0.69 0.70
0.79 0.80 0.73 0.69 0.76 0.67 0.61 0.68 0.77 0.88 1.04 1.30 1.52 1.51 1.60 1.52 1.42 1.36 1.36 1.38 1.35 1.38 1.37 1.37 1.31 1.21 1.10 1.06 1.15 1.04 0.98 0.92 0.86 0.80 0.75 0.75 0.75 0.76
0.84 0.93 0.94 0.87 0.84 0.91 0.87 0.88 0.85 0.77 0.84 0.76 0.98 1.35 1.48 1.53 1.47 1.49 1.55 1.47 1.34 1.33 1.32 1.32 1.31 1.21 1.06 0.98 1.05 0.94 0.85 0.81 0.84 0.88 0.91 0.91 0.89 0.86
0.79 0.90 0.93 0.87 0.91 0.97 1.09 1.15 1.08 0.94 1.04 1.05 0.97 1.07 1.21 1.26 1.36 1.43 1.47 1.37 1.31 1.26 1.14 1.06 1.05 1.10 1.13 1.05 1.01 1.01 0.89 0.79 0.75 0.73 0.71 0.74 0.79 0.87
0.81 0.86 1.00 0.91 0.88 0.87 0.96 1.10 1.09 0.97 0.84 0.88 0.85 0.75 0.70 0.80 0.99 1.14 1.39 1.46 1.38 1.27 1.11 1.01 1.02 1.00 1.04 0.98 0.90 0.92 0.88 0.88 0.83 0.75 0.71 0.67 0.68 0.68
0.92 0.97 0.94 1.01 0.84 0.81 0.82 0.84 0.92 0.91 0.89 0.94 1.01 0.91 0.79 0.74 0.77 0.84 1.03 1.22 1.32 1.23 1.10 0.97 0.97 0.97 0.90 0.82 0.78 0.81 0.81 0.78 0.76 0.77 0.76 0.73 0.71 0.65
0.81 0.81 0.77 0.85 0.70 0.62 0.58 0.64 0.70 0.74 0.85 0.98 0.97 0.94 0.93 0.87 0.83 0.84 0.89 0.97 1.04 1.08 1.05 0.99 0.94 0.90 0.85 0.77 0.74 0.76 0.77 0.75 0.71 0.68 0.66 0.76 0.79 0.80
0.53 0.61 0.62 0.60 0.55 0.48 0.52 0.57 0.58 0.61 0.72 0.80 0.83 0.80 0.81 0.86 0.85 0.85 0.86 0.87 0.84 0.78 0.73 0.77 0.85 0.89 0.88 0.81 0.71 0.69 0.71 0.70 0.65 0.64 0.64 0.62 0.61 0.68
0.43 0.45 0.45 0.45 0.46 0.46 0.48 0.53 0.58 0.63 0.66 0.67 0.67 0.71 0.73 0.80 0.86 0.82 0.81 0.85 0.86 0.82 0.77 0.77 0.80 0.88 0.91 0.83 0.76 0.67 0.66 0.68 0.64 0.62 0.60 0.61 0.60 0.57
0.52 0.46 0.42 0.43 0.46 0.52 0.53 0.51 0.54 0.59 0.59 0.58 0.59 0.61 0.62 0.68 0.73 0.72 0.73 0.75 0.74 0.69 0.71 0.75 0.78 0.80 0.82 0.82 0.83 0.78 0.77 0.76 0.73 0.72 0.69 0.64 0.59 0.57
0.51 0.58 0.59 0.63 0.66 0.64 0.62 0.53 0.48 0.48 0.53 0.56 0.56 0.57 0.59 0.60 0.65 0.67 0.65 0.68 0.68 0.61 0.55 0.56 0.61 0.67 0.70 0.68 0.64 0.65 0.71 0.73 0.78 0.81 0.76 0.70 0.64 0.61
0.47 0.63 0.64 0.62 0.58 0.56 0.52 0.44 0.39 0.36 0.37 0.44 0.52 0.58 0.60 0.61 0.65 0.70 0.66 0.60 0.59 0.59 0.55 0.48 0.47 0.52 0.57 0.53 0.51 0.48 0.51 0.58 0.64 0.66 0.67 0.64 0.59 0.60
0.41 0.50 0.50 0.50 0.43 0.36 0.30 0.25 0.24 0.23 0.22 0.27 0.31 0.38 0.52 0.63 0.72 0.74 0.75 0.75 0.73 0.68 0.63 0.55 0.47 0.42 0.42 0.43 0.40 0.36 0.37 0.43 0.50 0.52 0.53 0.55 0.55 0.58
0.23 0.24 0.24 0.26 0.25 0.22 0.19 0.18 0.17 0.17 0.17 0.18 0.21 0.25 0.32 0.44 0.60 0.71 0.75 0.79 0.78 0.77 0.74 0.66 0.62 0.62 0.52 0.48 0.44 0.34 0.31 0.34 0.38 0.39 0.41 0.44 0.45 0.45
0.14 0.14 0.14 0.14 0.15 0.15 0.15 0.16 0.16 0.16 0.16 0.18 0.22 0.26 0.33 0.37 0.40 0.49 0.61 0.66 0.62 0.58 0.60 0.63 0.65 0.64 0.58 0.58 0.54 0.42 0.34 0.32 0.35 0.40 0.37 0.36 0.33 0.32
0.13 0.13 0.13 0.13 0.14 0.17 0.18 0.17 0.16 0.16 0.16 0.17 0.19 0.24 0.30 0.37 0.40 0.41 0.43 0.46 0.51 0.54 0.56 0.57 0.58 0.58 0.59 0.61 0.63 0.58 0.48 0.41 0.39 0.41 0.43 0.52 0.46 0.34